This is the latest recevied weather packets stored in our database for station/object N0MPM-4. If no packets are shown the sender has not sent any weather packets the latest 10 day(s).
| Time | Temp. | Humidity | Pressure | Rain* | Wind** | Luminosity | Snow |
|---|---|---|---|---|---|---|---|
| 1777574412 | 11.67° C | 60% | 1017.3 hPa | 0 mm | - | - | - |
| 1777574112 | 11.67° C | 62% | 1017.3 hPa | 0 mm | - | - | - |
| 1777573812 | 11.67° C | 61% | 1017.2 hPa | 0 mm | - | - | - |
| 1777573513 | 11.67° C | 60% | 1017.2 hPa | 0 mm | - | - | - |
| 1777573212 | 12.22° C | 58% | 1017.3 hPa | 0 mm | - | - | - |
| 1777572912 | 12.78° C | 58% | 1017.3 hPa | 0 mm | - | - | - |
| 1777572612 | 12.78° C | 61% | 1017.2 hPa | 0 mm | - | - | - |
| 1777572313 | 12.78° C | 61% | 1017.2 hPa | 0 mm | - | - | - |
| 1777572013 | 12.22° C | 63% | 1017 hPa | 0 mm | - | - | - |
| 1777571713 | 12.78° C | 66% | 1017.1 hPa | 0 mm | - | - | - |
| 1777571413 | 12.78° C | 64% | 1017 hPa | 0 mm | - | - | - |
| 1777571113 | 12.78° C | 67% | 1017 hPa | 0 mm | - | - | - |
| 1777570813 | 12.22° C | 69% | 1017 hPa | 0 mm | - | - | - |
| 1777570513 | 12.22° C | 74% | 1017 hPa | 0 mm | - | - | - |
| 1777570213 | 12.22° C | 73% | 1017 hPa | 0 mm | - | - | - |
| 1777569913 | 11.67° C | 73% | 1017.3 hPa | 0 mm | - | - | - |
| 1777569613 | 11.67° C | 75% | 1017.4 hPa | 0 mm | - | - | - |
| 1777569313 | 11.67° C | 76% | 1017.4 hPa | 0 mm | - | - | - |
| 1777569013 | 11.67° C | 76% | 1017.5 hPa | 0 mm | - | - | - |
| 1777568713 | 11.67° C | 77% | 1017.4 hPa | 0 mm | - | - | - |
| 1777568413 | 12.22° C | 76% | 1017.4 hPa | 0 mm | - | - | - |
| 1777568113 | 12.22° C | 76% | 1017.4 hPa | 0 mm | - | - | - |
| 1777567813 | 12.22° C | 77% | 1017.3 hPa | 0 mm | - | - | - |
| 1777567513 | 12.22° C | 75% | 1017.3 hPa | 0 mm | - | - | - |
| 1777567213 | 12.22° C | 75% | 1017.3 hPa | 0 mm | - | - | - |
* Rain latest hour (hover to see other rain measurements)
** Current wind speed in m/s (hover to see current wind gust speed)